Location: Newark
(13.9550°N, 109.0422°E)
Time: 08:53:02
(UTC+00:00)

Hubble Space Telescope - Visible Passes

Search period start: 23 October 2019 00:00
Search period end: 02 November 2019 00:00
Orbit: 536 x 540 km, 28.5° (Epoch: 22 October)

Date Brightness Start Highest point End Pass type
(mag) Time Alt. Az. Time Alt. Az. Time Alt. Az.
23 Oct 2.1 21:32:07 11° SW 21:35:47 37° SSE 21:39:37 10° E visible
24 Oct 1.4 21:22:56 23° SW 21:25:12 52° SSE 21:29:13 10° ENE visible
25 Oct 0.8 21:13:40 50° SW 21:14:38 74° SSE 21:18:44 10° ENE visible
26 Oct 0.7 21:04:18 76° NNE 21:04:18 76° NNE 21:08:11 10° ENE visible
27 Oct 1.8 20:54:50 38° NE 20:54:50 38° NE 20:57:34 10° NE visible
28 Oct 2.8 20:45:15 22° NE 20:45:15 22° NE 20:46:54 10° NE visible
29 Oct 3.4 20:35:36 13° NE 20:35:36 13° NE 20:36:12 10° NE visible
29 Oct 2.9 22:12:10 10° NW 22:14:11 13° N 22:16:12 10° NNE visible
30 Oct 3.0 22:02:12 10° NNW 22:03:47 12° N 22:05:23 10° NNE visible
31 Oct 3.1 21:52:15 10° NNW 21:53:24 11° N 21:54:34 10° N visible
01 Nov 3.2 21:42:15 10° NNW 21:43:02 10° N 21:43:48 10° N visible
